Regional Weather Roundup
Issued by NWS

Home | Current Version | Previous Version | Graphics & Text | Print | Product List | Glossary On
Versions: 1 2 3 4 5 6 7 8 9 10 11 12 13 14 15 16 17 18 19 20 21 22 23 24 25 26 27 28 29 30 31 32 33 34 35 36 37 38 39 40 41 42 43 44 45 46 47 48 49 50
000
ASUS45 KBOU 211607
RWRCO

WEATHER ROUNDUP FOR COLORADO
NATIONAL WEATHER SERVICE DENVER/BOULDER CO
900 AM MST SUN DEC 21 2014

NOTE: "FAIR" INDICATES FEW OR NO CLOUDS BELOW 12000 FEET WITH NO
SIGNIFICANT WEATHER AND/OR OBSTRUCTIONS TO VISIBILITY.

COZ001>005-013-030-031-211700-
...NORTHWEST COLORADO...

CITY           SKY/WX    TMP DP  RH WIND       PRES   REMARKS
CRAIG          LGT SNOW  34  29  82 SW16      29.88R VSB 3/4 WCI  24
HAYDEN         CLOUDY    28  25  86 SE3       29.88R VSB 3/4
MEEKER         HVY SNOW  31  29  92 SW8       29.95S VSB 1/4 WCI  23
MOUNT WERNER   NOT AVBL
STEAMBOAT SPGS CLOUDY    28  27  94 E3        29.87R VSB 1/2
WALDEN         CLOUDY    30  23  74 S9        29.81S WCI  22
$$

COZ006>008-011-211700-
...WEST CENTRAL VALLEYS...

CITY           SKY/WX    TMP DP  RH WIND       PRES   REMARKS
GRAND JUNCTION LGT SNOW  31  31 100 SW3       30.06R FOG
MONTROSE       CLOUDY    31  27  85 CALM      30.02F
EAGLE          CLOUDY    28  27  93 CALM      29.96F
RIFLE          SNOW      31  29  92 CALM      30.02R VSB 1/2
DELTA          CLOUDY    34  31  88 CALM      30.05R
NUCLA          CLOUDY    30  28  93 NE3       30.07S
$$

COZ017>023-064>068-211700-
...SOUTHWEST COLORADO...

CITY           SKY/WX    TMP DP  RH WIND       PRES   REMARKS
DURANGO        CLOUDY    27  25  92 SE6       30.05S FOG     WCI  20
CORTEZ         SUNNY     31  28  89 CALM      30.06F
PAGOSA SPRINGS CLOUDY    28  27  93 CALM      30.04S
TELLURIDE      CLOUDY    27  23  85 E8        30.03F WCI  19
WOLF CREEK PAS SUNNY     18  18 100 MISG      30.00R
$$

COZ009-010-012-014-032>034-037-058>063-211700-
...CENTRAL COLORADO...

CITY           SKY/WX    TMP DP  RH WIND       PRES   REMARKS
ASPEN          CLOUDY    24  21  88 N3        29.93F
BUENA VISTA    MOSUNNY   35  16  45 W23G38    29.81F WCI  23
COPPER MTN     CLOUDY    21  16  79 W23G33    29.85S WCI   5
BERTHOUD PASS  CLOUDY    14   9  79 MISG      29.80R
COTTONWOOD PAS FLURRIES  32  16  51 NW25G35   29.81F WCI  19
GUNNISON       CLOUDY    21  18  86 NW3       30.00F
KREMMLING      CLOUDY    32  23  69 W6        29.89R WCI  26
LEADVILLE      LGT SNOW  24  18  77 NE14G25   29.83F WCI  12
MONARCH PASS   CLOUDY    16  14  93 MISG      30.00F
SALIDA         MOSUNNY   40  17  38 W30G43    29.90F
SUNLIGHT       SNOW     N/A N/A N/A SW5       29.94R VSB 1/4
WILKERSON PASS MOSUNNY   21  12  68 MISG      29.77F
$$

COZ069>075-211700-
...SAN LUIS VALLEY/SANGRE DE CRISTO MOUNTAINS...

CITY           SKY/WX    TMP DP  RH WIND       PRES   REMARKS
ALAMOSA        MOSUNNY   21  16  81 CALM      29.97S
LA VETA PASS   PTSUNNY   23  18  80 MISG      29.81F
SAGUACHE       MOSUNNY   27  18  69 SE8       29.96F WCI  18
$$

COZ035-036-038>040-211700-
...NORTHERN COLORADO FRONT RANGE...

CITY           SKY/WX    TMP DP  RH WIND       PRES   REMARKS
DENVER INTL AP MOSUNNY   44  20  38 S12       29.66F
DMNS CITY PARK   N/A     41  17  38 S3G12     29.64F
AURORA         PTSUNNY   43  19  38 S10       29.67F
FRONT RANGE AP MOSUNNY   43  25  49 S13       29.67F
ERIE MUNI ARPT   N/A     36  25  63 CALM      29.63F
BOULDER MUN AP MOSUNNY   34  23  64 E5        29.61F WCI  30
CENTENNIAL     PTSUNNY   37  22  54 SE8       29.67F
BROOMFIELD     PTSUNNY   46  18  31 W16       29.66
FORT COLLINS   MOSUNNY   30  19  64 NE3       29.66F
LONGMONT       MOSUNNY   37  26  65 E7        29.64F
$$

COZ041-046-047-076>085-087-088-211700-
...PIKES PEAK/PALMER DIVIDE AND SOUTHERN FOOTHILLS...

CITY           SKY/WX    TMP DP  RH WIND       PRES   REMARKS
COLO. SPRINGS  PTSUNNY   41  18  39 N8        29.73F
A. F. ACADEMY  MOSUNNY   36  15  43 W6        29.72F
ELLICOTT       NOT AVBL
FALCON         PTSUNNY   38  16  41 CALM      29.75F
FORT CARSON    PTSUNNY   37  21  52 N5        29.71F
LIMON          CLOUDY    29  24  82 NE3       29.70F
MONUMENT HILL  PTSUNNY   36  16  44 SW10      29.71S
TRINIDAD       CLOUDY    38  21  50 W8        29.78F
$$

COZ042>045-048>051-090-091-211700-
...NORTHEAST COLORADO...

CITY           SKY/WX    TMP DP  RH WIND       PRES   REMARKS
GREELEY ARPT   MOSUNNY   27  16  63 E5        29.65F WCI  21
AKRON          CLOUDY    37  23  56 S9        29.67F
BURLINGTON     SUNNY     38  27  64 W6        29.72F
WRAY           MOSUNNY   31  24  75 CALM      29.69F
STERLING       CLOUDY    23  21  93 S8        29.67F WCI  14
HOLYOKE        SUNNY     34  28  80 S3        29.67F
FORT MORGAN    CLOUDY    26  20  79 W7        29.69S WCI  18
$$

COZ086-089-092>099-211700-
...SOUTHEAST COLORADO...

CITY           SKY/WX    TMP DP  RH WIND       PRES   REMARKS
PUEBLO         CLOUDY    30  20  66 CALM      29.74F
LA JUNTA       CLOUDY    31  24  75 W3        29.75F
LAMAR          MOSUNNY   34  29  82 W8        29.75F WCI  27
SPRINGFIELD      N/A     47  25  42 W12       29.76S
$$



USA.gov is the U.S. government's official web portal to all federal, state and local government web resources and services.